Location: ????????
(55.5667°N, 37.5833°E)
Time: 19:27:23
(UTC+00:00)

Cosmos 2360 - Pass Details

Date: 14 April 2026
Orbit: 846 x 856 km, 70.7° (Epoch: 19 May)

Event Time Altitude Azimuth Distance (km) Brightness Sun altitude
Rises 20:44:50 0° 324° (NW) 3,421 8.5 -24.1°
Reaches altitude 10° 20:47:19 10° 328° (NNW) 2,483 7.6 -24.2°
Maximum altitude 20:52:59 63° 50° (NE) 949 4.5 -24.3°
Enters shadow 20:54:47 42° 111° (ESE) 1,197 4.7 -24.4°
